Lexington Weather

Lexington, Massachusetts, USA

46°F
10/26/2020 5:26am 
  • Lexington Conditions: Overcast
  • Temperature: 45.5°F / 7.5°CWarmer 0.4°F than last hour.
  • Dew Point: 40.3°FIncreased 0.6°Fsince last hour.
  • Relative Humidity: 82%Increased 1.0% since last hour.
  • Wind: Wind from WNW WNW Calm, 10-min avg: 1 mph, gust: 3 mph
  • Barometer: 30.28 in Steady
  • Visibility: 10 miles
  • Rain Today: 0.00 in
  •   

Regional Weather Roundup
for Boston / Norton, MA

        
000
ASUS41 KBOX 260104
RWRBOX

REGIONAL WEATHER ROUNDUP
NATIONAL WEATHER SERVICE BOSTON/NORTON MA
900 PM EDT SUN OCT 25 2020

NOTE:  "FAIR" INDICATES FEW OR NO CLOUDS BELOW 12,000 FEET WITH NO 
SIGNIFICANT WEATHER AND/OR OBSTRUCTIONS TO VISIBILITY.

MAZALL-260200-
EASTERN MASSACHUSETTS
  
CITY           SKY/WX    TMP DP  RH WIND       PRES   REMARKS
BOSTON         CLOUDY    47  35  63 E7        30.36S                  
BEVERLY        PTCLDY    44  36  73 NE3       30.35S                  
LAWRENCE       PTCLDY    45  34  65 E3        30.37S                  
BEDFORD        PTCLDY    45  36  70 E5        30.34S                  
BLUE HILL        N/A     43  36  76 E10       30.32S                  
NORWOOD        MOCLDY    47  37  68 CALM      30.34F                  
MARSHFIELD     CLOUDY    50  37  62 NE8       30.35S                  
PLYMOUTH       CLOUDY    47  36  65 E7        30.34S                  
TAUNTON        CLOUDY    47  38  71 CALM      30.34S                  
NEW BEDFORD    CLOUDY    48  38  68 NE8       30.33F                  
$$

MAZALL-260200-
CAPE COD AND THE ISLANDS
  
CITY           SKY/WX    TMP DP  RH WIND       PRES   REMARKS
FALMOUTH       MOCLDY    46  37  71 NE14      30.33S                  
HYANNIS        MOCLDY    45  38  76 NE5       30.33R                  
CHATHAM        MOCLDY    49  36  61 NE9       30.34S                  
PROVINCETOWN   MOCLDY    48  37  65 NE9       30.36S                  
NANTUCKET      CLOUDY   N/A N/A N/A NE10      30.32R                  
MARTHAS VNYRD  CLOUDY    50  39  66 NE14      30.33R                  
$$
 
MAZALL-260200-
CENTRAL AND WESTERN MASSACHUSETTS
  
CITY           SKY/WX    TMP DP  RH WIND       PRES   REMARKS
WORCESTER      MOCLDY    43  35  73 E6        30.31F                  
FITCHBURG      PTCLDY    40  35  83 N3        30.35S                  
ORANGE         MOCLDY    38  35  89 CALM      30.33S                  
SPRINGFIELD    NOT AVBL                                               
WESTFIELD      MOCLDY    44  36  73 N5        30.30F                  
NORTH ADAMS    MOCLDY    41  31  67 CALM      30.29S                  
PITTSFIELD     PTCLDY    42  29  59 CALM      30.27S                  
$$
 
RIZALL-260200-
RHODE ISLAND
  
CITY           SKY/WX    TMP DP  RH WIND       PRES   REMARKS
PROVIDENCE     LGT RAIN  47  39  74 NE10      30.33F                  
NEWPORT        LGT RAIN  47  38  71 NE10G16   30.32S                  
BLOCK ISLAND   CLOUDY    50  40  68 E12G21    30.31S                  
SMITHFIELD     LGT RAIN  43  41  93 E6        30.33F                  
WESTERLY       CLOUDY    48  39  71 NE8       30.32R                  
$$
 
CTZALL-260200-
CONNECTICUT
  
CITY           SKY/WX    TMP DP  RH WIND       PRES   REMARKS
BRADLEY INTL   MOCLDY    47  36  65 NE6       30.30S                  
HARTFORD       CLOUDY    49  35  58 NE6       30.30S                  
BRIDGEPORT     CLOUDY    51  37  58 N10       30.27F                  
DANBURY        CLOUDY    48  35  60 NE8       30.27S                  
GROTON         CLOUDY    50  39  66 E14       30.30S                  
NEW HAVEN      CLOUDY    52  38  58 N8        30.28S                  
CHESTER        FAIR      50  41  71 E7        30.28F                  
MERIDEN        CLOUDY    49  36  61 N3        30.29F                  
WILLIMANTIC    LGT RAIN  48  39  71 VRB6      30.31S                  
OXFORD         CLOUDY    46  35  65 E10       30.28S                  
$$

MEZ002-015-021-024-NHZ003-005-008-011-012-014-VTZ005-008-260200-
NORTHERN NEW ENGLAND
  
CITY           SKY/WX    TMP DP  RH WIND       PRES   REMARKS
PORTLAND ME    CLEAR     40  25  55 N3        30.39R                  
BANGOR ME      MOCLDY    37  26  64 CALM      30.40R                  
CONCORD NH     CLEAR     39  30  70 E5        30.35R                  
MANCHESTER NH  MOCLDY    42  33  70 CALM      30.34S                  
NASHUA NH      PTCLDY    38  35  89 CALM      30.36R                  
PORTSMOUTH NH  PTCLDY    40  32  74 CALM      30.35                   
JAFFREY NH     CLEAR     34  30  85 CALM      30.31F                  
KEENE NH       PTCLDY    35  31  85 CALM      30.33F                  
BURLINGTON VT  MOCLDY    38  24  57 N3        30.35S                  
MT. WASHINGTON MOCLDY    25   3  39 W21         N/A  WCI  10          
$$

NYZ052-076-260200-
EASTERN NEW YORK
  
CITY           SKY/WX    TMP DP  RH WIND       PRES   REMARKS
ALBANY         PTCLDY    38  28  67 N3        30.31F                  
NEW YORK CITY  LGT RAIN  53  40  61 N7        30.26F                  
$$
 
ANZALL-260200-
MARINE OBSERVATIONS
  
STATION/POSITION TIME  TEMP    WIND        PRES    VSBY  WAVE
                       AIR SEA DIR/SP/G                  HT/PER
                 (UTC) (F)     (DEG/KT/KT) (MB)    (MI)  (FT/S)
BOSTON BUOY      0050   49 57   70/ 10/ 12 1026.8R         5/11
BUZZARDS BAY     0000           60/ 19/ 21 1027.6R
NANTUCKET SOUND  0050      61   50/ 16/ 19   N/A           2/ 3
MASS BAY-STELLWA 0004   49 56   80/ 10/ 16 1027.0F  1 7/8  5/11
ISLE OF SHOALS   0000   47     100/  8/  9 1027.5R
S OF BLOCK IS    0026      62                N/A           5/11
$$

......................KEY.........................
  SKY/WX - SKY CONDITION/PRESENT WEATHER
  TMP    - TEMPERATURE IN FAHRENHEIT
  DWPT   - DEWPOINT IN FAHRENHEIT
  RH     - RELATIVE HUMIDITY IN PERCENT
  WIND   - DIRECTION AND SPEED IN MPH
  PRES   - MEAN SEA LEVEL PRESSURE IN INCHES OF HG
  WCI    - WIND CHILL INDEX
  VSB    - VISIBILITY IN MILES
  HX     - HEAT INDEX
  TC     - TEMPERATURE IN CELSIUS
  VRB    - VARIABLE WIND DIRECTION
  N/A    - NOT AVAILABLE
  
      

Other recent Regional Weather Roundups

Mon Oct 26, 5:04am

Mon Oct 26, 4:04am

Mon Oct 26, 3:04am

Mon Oct 26, 2:04am

Mon Oct 26, 1:04am

Mon Oct 26, 12:04am

Sun Oct 25, 11:05pm

Sun Oct 25, 10:04pm

Sun Oct 25, 8:04pm

Sun Oct 25, 7:04pm

Sun Oct 25, 6:04pm

Sun Oct 25, 5:04pm

Sun Oct 25, 4:05pm

Sun Oct 25, 3:04pm

Sun Oct 25, 2:04pm

Sun Oct 25, 1:04pm

Sun Oct 25, 12:04pm

Sun Oct 25, 11:04am

Sun Oct 25, 10:04am

Sun Oct 25, 9:04am

Sun Oct 25, 8:04am

Sun Oct 25, 7:04am

Sun Oct 25, 6:04am

Sun Oct 25, 5:04am

Sun Oct 25, 4:04am

Sun Oct 25, 3:04am

Sun Oct 25, 2:04am

Sun Oct 25, 1:05am

Sun Oct 25, 12:04am

Sat Oct 24, 11:04pm

Sat Oct 24, 10:04pm

Sat Oct 24, 9:04pm

Sat Oct 24, 8:04pm

Sat Oct 24, 7:04pm

Sat Oct 24, 6:04pm

Sat Oct 24, 5:05pm

Sat Oct 24, 4:04pm

Sat Oct 24, 3:04pm

Sat Oct 24, 2:04pm

Sat Oct 24, 1:05pm

Sat Oct 24, 12:04pm

Sat Oct 24, 11:05am

Sat Oct 24, 10:05am

Sat Oct 24, 9:04am

Sat Oct 24, 8:04am

Sat Oct 24, 7:04am

Sat Oct 24, 6:04am

Sat Oct 24, 5:04am

Sat Oct 24, 4:04am

Sat Oct 24, 3:04am

Sat Oct 24, 2:04am

Sat Oct 24, 1:05am

Sat Oct 24, 12:04am

Fri Oct 23, 11:04pm

Fri Oct 23, 10:04pm

Fri Oct 23, 9:04pm

Fri Oct 23, 8:05pm

Fri Oct 23, 7:04pm

Fri Oct 23, 6:04pm

Fri Oct 23, 5:05pm

Fri Oct 23, 4:04pm

Fri Oct 23, 3:04pm

Fri Oct 23, 2:05pm

Fri Oct 23, 1:04pm

Fri Oct 23, 12:04pm

Fri Oct 23, 11:04am

Fri Oct 23, 10:04am

Fri Oct 23, 9:04am

Fri Oct 23, 8:04am

Fri Oct 23, 7:04am

Fri Oct 23, 6:04am

Fri Oct 23, 5:04am

Fri Oct 23, 4:04am

Fri Oct 23, 3:04am

Fri Oct 23, 2:04am

Fri Oct 23, 1:04am

Fri Oct 23, 12:04am

Thu Oct 22, 11:04pm

Thu Oct 22, 10:04pm

Thu Oct 22, 9:05pm

Thu Oct 22, 8:04pm

Thu Oct 22, 7:05pm

Thu Oct 22, 6:04pm

Thu Oct 22, 5:04pm

Thu Oct 22, 4:05pm

Thu Oct 22, 3:04pm

Thu Oct 22, 2:05pm

Thu Oct 22, 1:04pm

Thu Oct 22, 12:04pm

Thu Oct 22, 11:04am

Thu Oct 22, 10:05am

Thu Oct 22, 9:04am

Thu Oct 22, 8:05am

Thu Oct 22, 7:04am

Thu Oct 22, 6:04am

Thu Oct 22, 5:04am

Thu Oct 22, 4:04am

Thu Oct 22, 3:04am

Thu Oct 22, 2:04am

Thu Oct 22, 1:04am

Thu Oct 22, 12:04am

Wed Oct 21, 11:05pm

Wed Oct 21, 10:04pm

Wed Oct 21, 9:04pm

Wed Oct 21, 8:04pm

Wed Oct 21, 7:04pm

Wed Oct 21, 6:04pm

Wed Oct 21, 5:05pm

Wed Oct 21, 4:04pm

Wed Oct 21, 3:04pm

Wed Oct 21, 2:05pm

Wed Oct 21, 1:04pm

Wed Oct 21, 12:04pm

Wed Oct 21, 11:04am

Wed Oct 21, 10:04am

Wed Oct 21, 9:04am

Wed Oct 21, 8:04am

Wed Oct 21, 7:04am

Wed Oct 21, 6:04am

Wed Oct 21, 5:04am

Wed Oct 21, 4:04am

Wed Oct 21, 3:04am

Wed Oct 21, 2:04am

Wed Oct 21, 1:04am

Wed Oct 21, 12:04am

Tue Oct 20, 11:05pm

Tue Oct 20, 10:04pm

Tue Oct 20, 9:04pm

Tue Oct 20, 8:05pm

Tue Oct 20, 7:04pm

Tue Oct 20, 6:04pm

Tue Oct 20, 5:05pm

Tue Oct 20, 4:04pm

Tue Oct 20, 3:05pm

Tue Oct 20, 2:07pm

Tue Oct 20, 1:04pm

Tue Oct 20, 12:04pm

Tue Oct 20, 11:04am

Tue Oct 20, 10:05am

Tue Oct 20, 9:04am

Tue Oct 20, 8:04am

Tue Oct 20, 7:04am

Tue Oct 20, 6:04am

Tue Oct 20, 5:04am

Tue Oct 20, 4:04am

Tue Oct 20, 3:04am

Tue Oct 20, 2:04am

Tue Oct 20, 1:04am

Tue Oct 20, 12:04am

Mon Oct 19, 11:04pm

Mon Oct 19, 10:04pm

Mon Oct 19, 9:04pm

Mon Oct 19, 8:04pm

Mon Oct 19, 7:04pm

Mon Oct 19, 6:04pm

Mon Oct 19, 5:04pm

Mon Oct 19, 4:04pm

Mon Oct 19, 3:04pm

Mon Oct 19, 2:04pm

Mon Oct 19, 1:05pm

Mon Oct 19, 12:04pm

Mon Oct 19, 11:04am

Mon Oct 19, 10:04am

Mon Oct 19, 9:04am

Mon Oct 19, 8:04am

Mon Oct 19, 7:04am

Mon Oct 19, 6:04am

Mon Oct 19, 5:04am

Meta data:

ID: 7e2cd42c-4f35-4d1b-8dfb-6788173d11c5
Link: https://api.weather.gov/products/7e2cd42c-4f35-4d1b-8dfb-6788173d11c5